DateTimeUTC,F1_A11,F1_S11,BsB_S11,BsG_S11,BsR_S11,BbsB_S11,BbsG_S11,BbsR_S11,BaB_A11,BaG_A11,BaR_A11,Tu_S11,T_S11,Uu_S11,U_S11,P_S11,T1_A11
2021-03-21T03:00:00Z,00000200,21000000,,,,,,,0000.61,0000.06,0000.34,16.9,24.2,,00.0,0639.5,31.0
2021-03-21T03:01:00Z,00000200,21000000,,,,,,,-000.17,0000.27,-000.10,16.9,24.3,,00.0,0639.5,31.0
2021-03-21T03:02:00Z,00000200,21000000,,,,,,,0000.03,0000.26,0000.39,16.9,24.3,,00.0,0639.5,31.0
2021-03-21T03:03:00Z,00000200,61000000,,,,,,,0000.34,0000.40,0000.22,16.9,24.3,,00.0,0639.5,31.0
2021-03-21T03:04:00Z,00000200,41000000,0000.25,0000.73,0000.28,0000.47,0000.16,-000.02,0000.89,0000.54,0000.08,17.4,24.3,,00.0,0640.3,31.0
2021-03-21T03:05:00Z,00000200,01000000,0000.51,0000.41,0000.48,0000.28,0000.03,0000.07,-000.32,-000.37,-000.28,17.5,24.3,,00.0,0640.4,31.1
2021-03-21T03:06:00Z,00000200,01000000,0001.09,0000.45,0000.36,-000.14,0000.07,-000.09,0000.27,0000.21,0000.15,17.5,24.3,,00.0,0640.3,31.0
2021-03-21T03:07:00Z,00000200,01000000,0000.74,0000.65,0000.45,-000.12,0000.08,0000.29,-000.17,-000.03,0000.31,17.5,24.3,,00.0,0640.3,31.0
2021-03-21T03:08:00Z,00000200,01000000,0000.79,0000.59,0000.38,0000.15,-000.02,0000.11,0000.07,0000.04,-000.23,17.4,24.3,,00.0,0640.3,31.0
2021-03-21T03:09:00Z,00000200,01000000,0001.27,0000.63,0000.40,0000.25,0000.06,0000.09,0000.32,0000.15,0000.09,17.4,24.3,,00.0,0640.3,31.0
2021-03-21T03:10:00Z,00000200,01000000,0000.73,0000.54,0000.61,0000.54,0000.07,0000.00,0000.19,0000.19,0000.43,17.3,24.3,,00.0,0640.3,31.0
2021-03-21T03:11:00Z,00000200,01000000,0000.86,0000.52,0000.19,0000.75,0000.01,-000.17,0000.22,0000.04,-000.37,17.3,24.3,,00.0,0640.3,31.0
2021-03-21T03:12:00Z,00000200,01000000,0001.00,0000.53,0000.34,0000.49,0000.01,-000.00,-000.20,0000.23,0000.15,17.3,24.3,,00.0,0640.2,31.0
2021-03-21T03:13:00Z,00000200,01000000,0000.12,0000.35,0000.37,0000.39,-000.18,0000.02,0000.21,-000.32,0000.25,17.3,24.2,,00.0,0640.2,31.0
2021-03-21T03:14:00Z,00000200,01000000,0001.34,0000.73,0000.11,0000.09,0000.14,0000.04,0000.06,0000.48,0000.20,17.2,24.2,,00.0,0640.2,31.0
2021-03-21T03:15:00Z,00000200,01000000,0000.39,0000.35,0000.29,-000.05,0000.22,0000.08,0000.17,-000.41,-000.23,17.2,24.2,,00.0,0640.1,31.0
2021-03-21T03:16:00Z,00000200,01000000,0001.14,0000.74,0000.14,0000.05,0000.15,0000.02,0000.07,0000.38,-000.05,17.1,24.2,,00.0,0640.1,31.0
2021-03-21T03:17:00Z,00000200,01000000,0000.61,0000.40,0000.28,0000.92,0000.05,-000.16,-000.13,0000.26,0000.32,17.1,24.2,,00.0,0640.1,31.0
2021-03-21T03:18:00Z,00000200,01000000,0001.01,0000.50,0000.33,0000.23,0000.17,0000.26,0000.46,-000.02,0000.24,17.1,24.1,,00.0,0640.1,31.0
2021-03-21T03:19:00Z,00000200,01000000,0001.26,0000.56,0000.33,0000.18,0000.27,0000.02,-000.11,0000.01,-000.26,17.0,24.1,,00.0,0640.1,31.0
2021-03-21T03:20:00Z,00000200,01000000,0000.93,0000.28,0000.27,0000.19,0000.15,-000.03,0000.50,0000.36,0000.23,17.0,24.1,,00.0,0640.0,31.0
2021-03-21T03:21:00Z,00000200,01000000,0000.75,0000.50,0000.20,0000.11,0000.07,0000.08,0000.38,0000.43,0000.30,17.0,24.0,,00.0,0640.0,31.0
2021-03-21T03:22:00Z,00000200,01000000,0000.04,0000.52,0000.26,0000.04,-000.11,0000.08,0000.30,0000.23,0000.10,17.0,24.0,,00.0,0640.0,31.0
2021-03-21T03:23:00Z,00000200,01000000,0000.55,0000.55,0000.42,0000.60,0000.19,0000.00,0000.09,-000.26,0000.09,17.0,24.0,,00.0,0640.0,31.0
2021-03-21T03:24:00Z,00000200,01000000,0000.30,0000.17,0000.33,0000.04,0000.28,0000.14,0000.24,0000.58,0000.62,17.0,24.0,,00.0,0639.9,31.0
2021-03-21T03:25:00Z,00000200,01000000,0000.32,0000.52,0000.54,0000.45,0000.20,-000.02,0000.29,0000.30,-000.34,17.0,24.0,,00.0,0639.9,31.0
2021-03-21T03:26:00Z,00000200,01000000,0000.90,0000.67,0000.29,0000.51,-000.02,0000.00,-000.12,-000.36,0000.09,17.0,24.0,,00.0,0639.9,31.0
2021-03-21T03:27:00Z,00000200,01000000,0001.01,0000.63,0000.36,0000.51,0000.19,-000.02,-000.11,0000.11,0000.20,17.0,24.0,,00.0,0639.9,31.0
2021-03-21T03:28:00Z,00000200,01000000,0001.43,0000.51,0000.33,0000.27,0000.12,0000.18,0000.35,0000.03,-000.02,16.9,24.0,,00.0,0639.9,30.9
2021-03-21T03:29:00Z,00000200,01000000,0001.21,0000.44,0000.31,0000.08,-000.06,0000.12,0000.16,0000.08,0000.08,16.9,24.0,,00.0,0639.9,30.9
2021-03-21T03:30:00Z,00000200,01000000,0000.67,0000.63,0000.43,0000.47,0000.25,0000.17,-000.00,0000.12,0000.08,16.9,23.9,,00.0,0639.9,30.9
2021-03-21T03:31:00Z,00000200,01000000,0000.39,0000.48,0000.41,0000.39,0000.20,-000.00,0000.24,-000.01,-000.17,16.8,23.9,,00.0,0639.9,30.9
2021-03-21T03:32:00Z,00000200,01000000,0000.91,0000.45,0000.33,-000.06,-000.07,0000.03,-000.21,0000.18,0000.20,16.8,23.9,,00.0,0639.9,30.9
2021-03-21T03:33:00Z,00000200,01000000,0000.75,0000.21,0000.46,0000.53,0000.10,0000.02,0000.01,-000.18,0000.08,16.8,23.9,,00.0,0639.9,30.9
2021-03-21T03:34:00Z,00000200,01000000,0000.61,0000.51,0000.33,0000.34,0000.07,-000.03,0000.21,0000.59,0000.10,16.8,23.9,,00.0,0639.9,30.9
2021-03-21T03:35:00Z,00000200,01000000,0001.13,0000.43,0000.53,0000.48,-000.01,-000.12,0000.43,0000.15,0000.11,16.7,23.8,,00.0,0639.8,30.9
2021-03-21T03:36:00Z,00000200,01000000,0000.82,0000.31,-000.05,-000.02,0000.18,-000.05,0000.54,0000.69,0000.64,16.7,23.8,,00.0,0639.8,30.9
2021-03-21T03:37:00Z,00000200,01000000,0001.33,0000.67,0000.37,0000.04,0000.01,0000.03,0000.37,0000.44,0000.14,16.7,23.8,,00.0,0639.8,30.9
2021-03-21T03:38:00Z,00000200,01000000,0000.72,0000.45,0000.43,0000.41,-000.17,0000.30,0000.18,-000.26,0000.14,16.8,23.8,,00.0,0639.8,30.9
2021-03-21T03:39:00Z,00000200,01000000,0001.19,0000.65,0000.12,0000.30,0000.08,0000.02,0000.05,0000.37,0000.34,16.8,23.8,,00.0,0639.8,31.0
2021-03-21T03:40:00Z,00000200,01000000,0000.67,0000.57,0000.30,0000.25,0000.06,0000.03,0000.27,0000.07,0000.08,16.9,23.9,,00.0,0639.7,31.0
2021-03-21T03:41:00Z,00000200,01000000,0000.92,0000.22,0000.02,-000.04,0000.12,0000.02,0000.02,0000.20,-000.26,17.0,23.9,,00.0,0639.7,31.0
2021-03-21T03:42:00Z,00000200,01000000,0000.84,0000.46,0000.43,0000.27,0000.23,0000.28,0000.37,0000.23,0000.47,17.0,24.0,,00.0,0639.7,31.0
2021-03-21T03:43:00Z,00000200,01000000,0000.82,0000.69,0000.20,-000.27,0000.21,-000.13,-000.20,-000.26,-000.39,17.0,23.9,,00.0,0639.7,31.0
2021-03-21T03:44:00Z,00000200,01000000,0000.11,0000.55,0000.27,0000.38,-000.01,-000.06,-000.13,-000.02,-000.13,17.0,24.0,,00.0,0639.7,31.0
2021-03-21T03:45:00Z,00000200,01000000,0000.76,0000.05,0000.35,0000.22,0000.02,-000.00,0000.17,-000.13,0000.10,17.0,23.9,,00.0,0639.7,31.0
2021-03-21T03:46:00Z,00000200,01000000,0001.21,0000.45,0000.07,0000.00,0000.07,-000.16,-000.06,0000.28,0000.26,16.9,23.9,,00.0,0639.7,31.0
2021-03-21T03:47:00Z,00000200,01000000,0000.69,0000.73,0000.42,0000.84,0000.07,-000.02,0000.27,-000.05,-000.07,16.9,23.9,,00.0,0639.7,31.0
2021-03-21T03:48:00Z,00000200,01000000,0000.47,0000.34,0000.42,0000.10,0000.23,0000.14,-000.01,0000.09,0000.05,16.9,23.9,,00.0,0639.6,31.0
2021-03-21T03:49:00Z,00000200,01000000,0000.14,0000.62,0000.31,0000.27,0000.18,-000.14,0000.57,0000.19,0000.31,16.8,23.9,,00.0,0639.6,31.0
2021-03-21T03:50:00Z,00000200,01000000,0000.93,0000.62,0000.19,0000.19,0000.31,0000.05,-000.10,0000.33,-000.22,16.8,23.8,,00.0,0639.6,31.0
2021-03-21T03:51:00Z,00000200,01000000,0001.42,0000.59,0000.18,0000.47,0000.17,-000.17,0000.22,0000.15,0000.36,16.8,23.8,,00.0,0639.6,30.9
2021-03-21T03:52:00Z,00000200,01000000,0000.65,0000.45,0000.31,0000.44,0000.10,0000.05,0000.46,0000.55,0000.63,16.8,23.8,,00.0,0639.5,31.0
2021-03-21T03:53:00Z,00000200,01000000,0000.11,0000.38,0000.23,0000.51,0000.01,0000.11,0000.09,-000.38,-000.17,16.9,23.8,,00.0,0639.5,31.0
2021-03-21T03:54:00Z,00000200,01000000,0001.19,0000.61,0000.37,0000.09,0000.34,-000.11,-000.01,0000.40,0000.19,16.9,23.9,,00.0,0639.5,31.0
2021-03-21T03:55:00Z,00000200,01000000,0000.77,0000.47,0000.50,0000.32,0000.01,0000.16,0000.48,0000.18,0000.35,17.0,23.9,,00.0,0639.5,31.0
2021-03-21T03:56:00Z,00000200,01000000,0000.19,0000.21,0000.36,0000.29,0000.17,-000.30,-000.19,0000.07,-000.50,17.1,24.0,,00.0,0639.5,31.0
2021-03-21T03:57:00Z,00000200,41000000,,,,,,,0000.49,0000.08,0000.59,17.2,24.0,,00.0,0639.5,31.0
2021-03-21T03:58:00Z,00000200,61000000,,,,,,,-000.25,-000.10,-000.41,16.9,24.2,,00.0,0638.5,31.0
2021-03-21T03:59:00Z,00000200,21000000,,,,,,,-000.14,0000.23,0000.19,16.9,24.3,,00.0,0638.5,31.0
